Location: Unspecified
(0.0000°N, 0.0000°E)
Time: 00:54:33
(UTC+00:00)

Envisat - Pass Details

Date: 18 February 2019
Orbit: 764 x 766 km, 98.2° (Epoch: 15 February)

Event Time Altitude Azimuth Distance (km) Brightness Sun altitude
Rises 19:52:12 0° 191° (S) 3,230 6.5 -24.0°
Reaches altitude 10° 19:54:53 10° 204° (SSW) 2,301 5.9 -24.7°
Maximum altitude 19:58:56 24° 258° (WSW) 1,528 5.3 -25.7°
Drops below altitude 10° 20:02:59 10° 311° (NW) 2,293 5.9 -26.7°
Sets 20:05:40 0° 325° (NW) 3,216 6.5 -27.3°
